QPF
0.00 0.00 0.00 0.00 0.01 0.01 0.01 0.03 0.03 0.03 0.06 0.14 0.25 0.39 0.36 0.23 0.14 0.07 0.02 0.00 0.00 0.01 0.01 0.03 0.05 0.03 0.01 0.00 0.00 0.00 0.00 0.00 0.00 0.00 0.00 0.00 0.00 0.00 0.00 0.00 0.00 0.00 0.00 0.00 0.00 0.00 0.00 0.00 0.00
0.00 0.00 0.00 0.00 0.01 0.01 0.01 0.02 0.03 0.04 0.06 0.10 0.14 0.22 0.25 0.18 0.11 0.04 0.01 0.00 0.01 0.01 0.01 0.01 0.03 0.03 0.01 0.01 0.01 0.01 0.01 0.00 0.00 0.00 0.00 0.00 0.00 0.00 0.00 0.00 0.00 0.00 0.00 0.00 0.00 0.00 0.00 0.00 0.00
0.00 0.00 0.00 0.01 0.01 0.01 0.01 0.01 0.02 0.05 0.10 0.11 0.12 0.15 0.15 0.12 0.07 0.03 0.01 0.00 0.01 0.01 0.01 0.01 0.02 0.02 0.02 0.01 0.01 0.01 0.00 0.00 0.00 0.00 0.00 0.00 0.00 0.00 0.00 0.00 0.00 0.00 0.00 0.00 0.00 0.00 0.00 0.00 0.00
0.00 0.00 0.00 0.01 0.00 0.01 0.01 0.01 0.01 0.02 0.06 0.10 0.10 0.13 0.11 0.09 0.07 0.03 0.01 0.01 0.02 0.01 0.01 0.02 0.02 0.02 0.02 0.01 0.01 0.01 0.01 0.00 0.00 0.00 0.00 0.00 0.01 0.01 0.01 0.01 0.01 0.00 0.00 0.00 0.00 0.00 0.00 0.00 0.00
0.00 0.00 0.00 0.01 0.00 0.01 0.01 0.01 0.01 0.02 0.04 0.06 0.09 0.12 0.11 0.10 0.10 0.05 0.02 0.01 0.01 0.02 0.02 0.02 0.02 0.02 0.02 0.01 0.01 0.01 0.01 0.00 0.00 0.00 0.00 0.01 0.01 0.01 0.01 0.01 0.01 0.01 0.01 0.01 0.01 0.00 0.00 0.00 0.01
0.00 0.00 0.00 0.00 0.00 0.00 0.00 0.00 0.01 0.01 0.02 0.04 0.06 0.08 0.12 0.12 0.10 0.05 0.04 0.01 0.02 0.02 0.01 0.01 0.02 0.02 0.02 0.01 0.01 0.00 0.00 0.00 0.00 0.00 0.01 0.01 0.01 0.01 0.01 0.02 0.02 0.01 0.01 0.01 0.01 0.01 0.01 0.00 0.00
0.00 0.00 0.00 0.00 0.00 0.00 0.00 0.01 0.02 0.02 0.03 0.05 0.05 0.08 0.10 0.13 0.10 0.08 0.07 0.04 0.04 0.03 0.02 0.01 0.01 0.01 0.02 0.01 0.01 0.00 0.00 0.00 0.00 0.00 0.01 0.01 0.01 0.01 0.02 0.02 0.02 0.01 0.02 0.02 0.02 0.01 0.01 0.01 0.01
0.00 0.00 0.00 0.00 0.00 0.00 0.00 0.01 0.01 0.02 0.03 0.04 0.05 0.07 0.09 0.13 0.12 0.09 0.08 0.06 0.07 0.04 0.04 0.02 0.01 0.01 0.01 0.01 0.01 0.01 0.01 0.01 0.01 0.01 0.02 0.03 0.03 0.03 0.04 0.04 0.05 0.05 0.05 0.05 0.05 0.04 0.04 0.04 0.02
0.00 0.00 0.00 0.00 0.00 0.00 0.00 0.01 0.01 0.03 0.03 0.02 0.02 0.03 0.07 0.14 0.14 0.14 0.17 0.11 0.06 0.03 0.03 0.03 0.02 0.01 0.01 0.01 0.01 0.02 0.01 0.02 0.02 0.02 0.03 0.03 0.02 0.03 0.05 0.07 0.09 0.09 0.08 0.09 0.08 0.08 0.08 0.06 0.04
0.00 0.00 0.00 0.00 0.00 0.00 0.00 0.01 0.02 0.05 0.08 0.07 0.05 0.06 0.09 0.17 0.20 0.17 0.21 0.15 0.07 0.03 0.03 0.03 0.02 0.01 0.01 0.01 0.01 0.02 0.02 0.02 0.02 0.02 0.03 0.02 0.02 0.03 0.04 0.07 0.11 0.11 0.11 0.10 0.11 0.11 0.08 0.06 0.04
0.00 0.00 0.00 0.00 0.00 0.00 0.00 0.00 0.01 0.04 0.08 0.08 0.07 0.06 0.10 0.16 0.20 0.23 0.22 0.18 0.10 0.08 0.05 0.03 0.03 0.03 0.02 0.02 0.02 0.02 0.03 0.03 0.03 0.04 0.03 0.03 0.03 0.04 0.06 0.07 0.08 0.09 0.08 0.08 0.08 0.07 0.05 0.05 0.05
0.00 0.00 0.00 0.00 0.00 0.00 0.00 0.01 0.01 0.02 0.03 0.04 0.06 0.09 0.14 0.20 0.22 0.30 0.26 0.19 0.16 0.12 0.10 0.08 0.07 0.07 0.06 0.05 0.05 0.05 0.05 0.04 0.04 0.03 0.02 0.02 0.03 0.04 0.04 0.05 0.04 0.03 0.04 0.04 0.04 0.05 0.05 0.05 0.05
0.00 0.00 0.00 0.00 0.00 0.00 0.00 0.01 0.01 0.03 0.06 0.05 0.06 0.10 0.15 0.19 0.21 0.26 0.25 0.24 0.20 0.17 0.16 0.15 0.11 0.12 0.11 0.08 0.06 0.06 0.07 0.07 0.06 0.05 0.04 0.04 0.03 0.04 0.04 0.03 0.03 0.02 0.02 0.02 0.02 0.03 0.04 0.04 0.04
0.00 0.00 0.00 0.00 0.00 0.00 0.00 0.00 0.01 0.01 0.03 0.05 0.06 0.08 0.10 0.14 0.16 0.20 0.19 0.21 0.18 0.19 0.22 0.22 0.17 0.13 0.12 0.09 0.06 0.07 0.07 0.06 0.05 0.04 0.05 0.03 0.02 0.02 0.01 0.01 0.02 0.02 0.01 0.01 0.01 0.02 0.02 0.02 0.03
0.00 0.00 0.00 0.00 0.00 0.00 0.00 0.01 0.01 0.01 0.01 0.05 0.07 0.10 0.13 0.13 0.17 0.20 0.19 0.21 0.20 0.22 0.22 0.20 0.17 0.13 0.10 0.07 0.06 0.05 0.04 0.04 0.04 0.03 0.03 0.01 0.00 0.00 0.00 0.00 0.01 0.01 0.00 0.00 0.00 0.00 0.01 0.01 0.01
0.00 0.00 0.00 0.00 0.00 0.00 0.00 0.01 0.01 0.01 0.02 0.05 0.11 0.11 0.13 0.15 0.21 0.26 0.31 0.33 0.29 0.26 0.23 0.20 0.15 0.12 0.09 0.06 0.04 0.03 0.04 0.04 0.03 0.02 0.02 0.01 0.00 0.00 0.00 0.00 0.00 0.00 0.00 0.00 0.00 0.00 0.00 0.00 0.00
0.00 0.00 0.00 0.00 0.01 0.01 0.01 0.01 0.01 0.02 0.03 0.05 0.10 0.15 0.20 0.22 0.24 0.27 0.33 0.33 0.32 0.31 0.25 0.20 0.17 0.14 0.08 0.05 0.03 0.03 0.04 0.04 0.03 0.01 0.01 0.00 0.00 0.00 0.00 0.00 0.00 0.00 0.00 0.00 0.00 0.00 0.00 0.00 0.00
0.00 0.00 0.00 0.01 0.00 0.00 0.00 0.00 0.01 0.02 0.03 0.05 0.08 0.11 0.16 0.21 0.25 0.25 0.29 0.29 0.31 0.29 0.25 0.19 0.14 0.10 0.06 0.04 0.03 0.02 0.02 0.02 0.01 0.00 0.00 0.00 0.00 0.00 0.00 0.00 0.00 0.00 0.00 0.00 0.00 0.00 0.00 0.00 0.00
0.00 0.00 0.00 0.00 0.00 0.00 0.00 0.00 0.00 0.01 0.01 0.03 0.04 0.09 0.14 0.14 0.17 0.18 0.19 0.20 0.23 0.21 0.18 0.13 0.09 0.06 0.04 0.03 0.03 0.02 0.01 0.01 0.00 0.00 0.00 0.00 0.00 0.00 0.00 0.00 0.00 0.00 0.00 0.00 0.00 0.00 0.00 0.00 0.00
0.00 0.00 0.00 0.00 0.00 0.00 0.00 0.00 0.00 0.01 0.01 0.01 0.02 0.05 0.07 0.09 0.10 0.13 0.15 0.16 0.18 0.16 0.13 0.11 0.07 0.04 0.03 0.02 0.01 0.01 0.00 0.00 0.00 0.00 0.00 0.00 0.00 0.00 0.00 0.00 0.00 0.00 0.00 0.00 0.00 0.00 0.00 0.00 0.00
0.00 0.00 0.00 0.00 0.00 0.00 0.00 0.00 0.00 0.00 0.01 0.01 0.02 0.03 0.06 0.07 0.08 0.12 0.13 0.13 0.14 0.14 0.09 0.06 0.05 0.03 0.02 0.01 0.00 0.00 0.00 0.00 0.00 0.00 0.00 0.00 0.00 0.00 0.00 0.00 0.00 0.00 0.00 0.00 0.00 0.00 0.00 0.00 0.00
0.00 0.00 0.00 0.00 0.00 0.00 0.00 0.00 0.01 0.01 0.01 0.01 0.01 0.02 0.03 0.04 0.05 0.13 0.12 0.08 0.07 0.07 0.05 0.03 0.03 0.02 0.01 0.01 0.00 0.00 0.00 0.00 0.00 0.00 0.00 0.00 0.00 0.00 0.00 0.00 0.00 0.00 0.00 0.00 0.00 0.00 0.00 0.00 0.00
0.00 0.00 0.00 0.00 0.00 0.00 0.00 0.00 0.00 0.00 0.01 0.01 0.01 0.01 0.02 0.02 0.04 0.07 0.06 0.04 0.03 0.03 0.03 0.02 0.02 0.01 0.01 0.01 0.00 0.00 0.00 0.00 0.00 0.00 0.00 0.00 0.00 0.00 0.00 0.00 0.00 0.00 0.00 0.00 0.00 0.00 0.00 0.00 0.00
0.00 0.00 0.00 0.00 0.00 0.00 0.00 0.00 0.00 0.00 0.00 0.00 0.00 0.01 0.01 0.01 0.02 0.02 0.03 0.02 0.02 0.02 0.01 0.01 0.01 0.01 0.00 0.00 0.00 0.00 0.00 0.00 0.00 0.00 0.00 0.00 0.00 0.00 0.00 0.00 0.00 0.00 0.00 0.00 0.00 0.00 0.00 0.00 0.00
0.00 0.00 0.00 0.00 0.00 0.00 0.00 0.00 0.00 0.00 0.00 0.00 0.00 0.00 0.00 0.00 0.01 0.01 0.02 0.02 0.02 0.02 0.01 0.01 0.01 0.00 0.00 0.00 0.00 0.00 0.00 0.00 0.00 0.00 0.00 0.00 0.00 0.00 0.00 0.00 0.00 0.00 0.00 0.00 0.00 0.00 0.00 0.00 0.00
0.00 0.00 0.00 0.00 0.00 0.00 0.00 0.00 0.00 0.00 0.00 0.00 0.00 0.00 0.00 0.00 0.00 0.01 0.02 0.03 0.02 0.02 0.02 0.02 0.01 0.00 0.00 0.00 0.00 0.00 0.00 0.00 0.00 0.00 0.00 0.00 0.00 0.00 0.00 0.00 0.00 0.00 0.00 0.00 0.00 0.00 0.00 0.00 0.00
0.00 0.00 0.00 0.00 0.00 0.00 0.00 0.00 0.00 0.00 0.00 0.00 0.00 0.00 0.00 0.00 0.00 0.00 0.01 0.02 0.02 0.01 0.02 0.03 0.01 0.00 0.00 0.00 0.00 0.00 0.00 0.00 0.00 0.00 0.00 0.00 0.00 0.00 0.00 0.00 0.00 0.00 0.00 0.00 0.00 0.00 0.00 0.00 0.00
0.00 0.00 0.00 0.00 0.00 0.00 0.00 0.00 0.00 0.00 0.00 0.00 0.00 0.00 0.00 0.00 0.00 0.01 0.01 0.00 0.01 0.01 0.01 0.01 0.00 0.00 0.00 0.00 0.00 0.00 0.00 0.00 0.00 0.00 0.00 0.00 0.00 0.00 0.00 0.00 0.00 0.00 0.00 0.00 0.00 0.00 0.00 0.00 0.00
0.00 0.00 0.00 0.00 0.00 0.00 0.00 0.00 0.00 0.00 0.00 0.00 0.00 0.00 0.00 0.00 0.00 0.00 0.00 0.00 0.00 0.00 0.00 0.00 0.00 0.00 0.00 0.00 0.00 0.00 0.00 0.00 0.00 0.00 0.00 0.00 0.00 0.00 0.00 0.00 0.00 0.00 0.00 0.00 0.00 0.00 0.00 0.00 0.00
0.00 0.00 0.00 0.00 0.00 0.00 0.00 0.00 0.00 0.00 0.00 0.00 0.00 0.00 0.01 0.01 0.00 0.00 0.00 0.00 0.00 0.00 0.00 0.00 0.00 0.00 0.00 0.00 0.00 0.00 0.00 0.00 0.00 0.00 0.00 0.00 0.00 0.00 0.00 0.00 0.00 0.00 0.00 0.00 0.00 0.00 0.00 0.00 0.00
MSLP
1011.25 1012.15 1013.18 1014.22 1015.13 1015.82 1016.25 1016.40 1016.32 1016.09 1015.81 1015.56 1015.36 1015.25 1015.18 1015.12 1015.00 1014.80 1014.51 1014.14 1013.75 1013.41 1013.17 1013.09 1013.18 1013.42 1013.77 1014.16 1014.54 1014.88 1015.15 1015.37 1015.54 1015.70 1015.87 1016.06 1016.26 1016.47 1016.65 1016.78 1016.87 1016.92 1016.93 1016.93 1016.94 1016.96 1017.00 1017.03 1017.06
1011.64 1012.69 1013.79 1014.80 1015.60 1016.10 1016.28 1016.18 1015.87 1015.45 1015.04 1014.71 1014.50 1014.42 1014.41 1014.43 1014.40 1014.29 1014.09 1013.82 1013.53 1013.29 1013.15 1013.15 1013.31 1013.59 1013.96 1014.36 1014.74 1015.09 1015.37 1015.61 1015.82 1016.01 1016.21 1016.41 1016.61 1016.78 1016.92 1017.01 1017.06 1017.07 1017.07 1017.07 1017.09 1017.13 1017.18 1017.22 1017.24
1012.19 1013.33 1014.44 1015.36 1015.98 1016.26 1016.19 1015.84 1015.32 1014.74 1014.24 1013.87 1013.68 1013.64 1013.70 1013.79 1013.85 1013.82 1013.72 1013.55 1013.37 1013.24 1013.21 1013.30 1013.52 1013.84 1014.22 1014.61 1014.98 1015.30 1015.58 1015.82 1016.04 1016.25 1016.46 1016.67 1016.86 1017.01 1017.11 1017.16 1017.17 1017.16 1017.16 1017.17 1017.21 1017.27 1017.34 1017.39 1017.42
1012.87 1014.02 1015.05 1015.82 1016.24 1016.28 1015.98 1015.43 1014.75 1014.08 1013.53 1013.17 1013.01 1013.02 1013.14 1013.30 1013.42 1013.47 1013.44 1013.37 1013.30 1013.28 1013.35 1013.53 1013.81 1014.16 1014.54 1014.90 1015.23 1015.52 1015.76 1015.98 1016.19 1016.40 1016.62 1016.83 1017.01 1017.15 1017.23 1017.26 1017.26 1017.24 1017.24 1017.27 1017.33 1017.42 1017.51 1017.58 1017.61
1013.58 1014.67 1015.57 1016.15 1016.35 1016.18 1015.69 1015.00 1014.24 1013.55 1013.02 1012.70 1012.60 1012.66 1012.83 1013.01 1013.17 1013.26 1013.29 1013.30 1013.32 1013.40 1013.57 1013.83 1014.16 1014.53 1014.89 1015.22 1015.49 1015.71 1015.89 1016.07 1016.26 1016.47 1016.70 1016.92 1017.11 1017.25 1017.33 1017.36 1017.36 1017.35 1017.36 1017.41 1017.50 1017.60 1017.71 1017.79 1017.83
1014.23 1015.20 1015.91 1016.29 1016.29 1015.95 1015.34 1014.59 1013.84 1013.19 1012.74 1012.50 1012.47 1012.57 1012.76 1012.95 1013.10 1013.20 1013.26 1013.31 1013.41 1013.57 1013.83 1014.16 1014.53 1014.90 1015.24 1015.51 1015.71 1015.86 1015.99 1016.12 1016.29 1016.50 1016.73 1016.97 1017.18 1017.35 1017.45 1017.49 1017.50 1017.50 1017.53 1017.59 1017.69 1017.81 1017.92 1018.00 1018.04
1014.73 1015.52 1016.03 1016.21 1016.04 1015.59 1014.94 1014.22 1013.54 1013.01 1012.67 1012.54 1012.57 1012.71 1012.89 1013.06 1013.18 1013.25 1013.30 1013.38 1013.52 1013.76 1014.08 1014.46 1014.86 1015.24 1015.54 1015.76 1015.90 1015.98 1016.05 1016.15 1016.30 1016.51 1016.77 1017.04 1017.28 1017.48 1017.60 1017.66 1017.68 1017.69 1017.72 1017.78 1017.88 1018.00 1018.11 1018.19 1018.22
1015.01 1015.61 1015.92 1015.92 1015.63 1015.13 1014.51 1013.87 1013.33 1012.95 1012.75 1012.72 1012.82 1012.98 1013.14 1013.25 1013.31 1013.34 1013.37 1013.45 1013.63 1013.90 1014.28 1014.70 1015.13 1015.50 1015.78 1015.95 1016.04 1016.08 1016.11 1016.19 1016.34 1016.57 1016.85 1017.16 1017.44 1017.66 1017.80 1017.87 1017.89 1017.89 1017.90 1017.95 1018.03 1018.13 1018.23 1018.31 1018.34
1015.04 1015.45 1015.58 1015.45 1015.09 1014.60 1014.05 1013.55 1013.16 1012.94 1012.89 1012.96 1013.10 1013.26 1013.38 1013.43 1013.43 1013.41 1013.41 1013.49 1013.68 1014.00 1014.40 1014.86 1015.30 1015.67 1015.94 1016.09 1016.15 1016.17 1016.19 1016.27 1016.44 1016.69 1017.01 1017.34 1017.65 1017.89 1018.04 1018.10 1018.10 1018.07 1018.05 1018.06 1018.11 1018.19 1018.28 1018.35 1018.37
1014.84 1015.08 1015.07 1014.85 1014.48 1014.03 1013.59 1013.23 1013.01 1012.94 1013.00 1013.14 1013.32 1013.46 1013.53 1013.53 1013.48 1013.41 1013.40 1013.48 1013.69 1014.02 1014.45 1014.93 1015.38 1015.76 1016.03 1016.17 1016.23 1016.26 1016.29 1016.40 1016.60 1016.88 1017.23 1017.60 1017.92 1018.17 1018.31 1018.34 1018.31 1018.23 1018.16 1018.13 1018.13 1018.18 1018.25 1018.31 1018.35
1014.47 1014.58 1014.48 1014.22 1013.86 1013.48 1013.16 1012.94 1012.85 1012.90 1013.04 1013.23 1013.41 1013.53 1013.56 1013.52 1013.44 1013.35 1013.33 1013.42 1013.64 1013.99 1014.44 1014.93 1015.39 1015.77 1016.04 1016.21 1016.29 1016.35 1016.42 1016.57 1016.81 1017.14 1017.51 1017.90 1018.23 1018.46 1018.58 1018.58 1018.50 1018.38 1018.25 1018.16 1018.12 1018.14 1018.19 1018.25 1018.29
1014.03 1014.05 1013.89 1013.63 1013.32 1013.02 1012.81 1012.69 1012.71 1012.82 1013.00 1013.20 1013.36 1013.46 1013.47 1013.41 1013.32 1013.24 1013.23 1013.34 1013.57 1013.93 1014.38 1014.86 1015.32 1015.71 1016.00 1016.20 1016.33 1016.44 1016.57 1016.77 1017.05 1017.41 1017.82 1018.21 1018.54 1018.76 1018.86 1018.82 1018.70 1018.52 1018.35 1018.20 1018.12 1018.11 1018.15 1018.21 1018.26
1013.64 1013.59 1013.42 1013.18 1012.92 1012.71 1012.57 1012.54 1012.60 1012.74 1012.92 1013.10 1013.23 1013.30 1013.31 1013.25 1013.18 1013.13 1013.15 1013.27 1013.51 1013.87 1014.30 1014.77 1015.22 1015.61 1015.92 1016.16 1016.35 1016.52 1016.71 1016.97 1017.30 1017.69 1018.10 1018.50 1018.82 1019.03 1019.11 1019.06 1018.91 1018.70 1018.49 1018.31 1018.20 1018.16 1018.18 1018.24 1018.31
1013.37 1013.29 1013.12 1012.92 1012.73 1012.58 1012.51 1012.51 1012.58 1012.71 1012.85 1012.98 1013.08 1013.14 1013.14 1013.11 1013.07 1013.07 1013.12 1013.26 1013.50 1013.83 1014.22 1014.66 1015.09 1015.48 1015.82 1016.10 1016.35 1016.58 1016.84 1017.15 1017.52 1017.92 1018.35 1018.74 1019.06 1019.27 1019.35 1019.30 1019.15 1018.93 1018.71 1018.51 1018.38 1018.32 1018.33 1018.38 1018.45
1013.27 1013.18 1013.03 1012.88 1012.75 1012.67 1012.63 1012.64 1012.69 1012.76 1012.85 1012.92 1012.98 1013.02 1013.04 1013.05 1013.06 1013.09 1013.18 1013.32 1013.54 1013.82 1014.17 1014.56 1014.96 1015.34 1015.71 1016.04 1016.35 1016.65 1016.97 1017.32 1017.70 1018.12 1018.53 1018.92 1019.23 1019.45 1019.55 1019.52 1019.40 1019.21 1019.01 1018.82 1018.68 1018.60 1018.59 1018.63 1018.69
1013.33 1013.24 1013.13 1013.03 1012.97 1012.94 1012.92 1012.92 1012.93 1012.94 1012.94 1012.96 1012.98 1013.00 1013.04 1013.09 1013.15 1013.23 1013.33 1013.46 1013.64 1013.87 1014.15 1014.48 1014.85 1015.23 1015.61 1015.99 1016.37 1016.73 1017.10 1017.47 1017.86 1018.26 1018.66 1019.03 1019.34 1019.57 1019.70 1019.73 1019.66 1019.52 1019.36 1019.19 1019.06 1018.97 1018.94 1018.96 1018.99
1013.49 1013.41 1013.35 1013.33 1013.34 1013.35 1013.36 1013.33 1013.28 1013.21 1013.14 1013.08 1013.06 1013.08 1013.13 1013.22 1013.33 1013.43 1013.54 1013.66 1013.79 1013.95 1014.17 1014.44 1014.77 1015.15 1015.57 1016.00 1016.43 1016.84 1017.25 1017.63 1018.01 1018.38 1018.74 1019.08 1019.39 1019.63 1019.80 1019.89 1019.89 1019.83 1019.72 1019.59 1019.47 1019.39 1019.34 1019.33 1019.34
1013.65 1013.62 1013.64 1013.71 1013.80 1013.86 1013.88 1013.83 1013.71 1013.55 1013.38 1013.25 1013.18 1013.19 1013.27 1013.39 1013.54 1013.67 1013.79 1013.88 1013.97 1014.07 1014.22 1014.44 1014.75 1015.13 1015.58 1016.06 1016.54 1017.01 1017.44 1017.82 1018.17 1018.50 1018.81 1019.10 1019.39 1019.64 1019.85 1020.00 1020.08 1020.09 1020.05 1019.97 1019.88 1019.80 1019.74 1019.70 1019.68
1013.75 1013.80 1013.93 1014.11 1014.29 1014.41 1014.44 1014.34 1014.15 1013.89 1013.62 1013.41 1013.29 1013.28 1013.37 1013.53 1013.72 1013.89 1014.01 1014.09 1014.14 1014.20 1014.30 1014.48 1014.78 1015.17 1015.66 1016.19 1016.72 1017.23 1017.67 1018.05 1018.36 1018.63 1018.87 1019.11 1019.36 1019.61 1019.85 1020.05 1020.20 1020.29 1020.32 1020.29 1020.23 1020.16 1020.09 1020.04 1020.01
1013.75 1013.92 1014.19 1014.50 1014.79 1014.97 1014.99 1014.85 1014.56 1014.18 1013.80 1013.49 1013.31 1013.27 1013.37 1013.57 1013.80 1014.01 1014.17 1014.26 1014.30 1014.33 1014.40 1014.56 1014.85 1015.27 1015.79 1016.36 1016.94 1017.48 1017.93 1018.29 1018.56 1018.77 1018.94 1019.12 1019.33 1019.56 1019.81 1020.05 1020.26 1020.41 1020.50 1020.53 1020.51 1020.45 1020.39 1020.34 1020.30
1013.66 1013.99 1014.43 1014.90 1015.29 1015.52 1015.53 1015.31 1014.91 1014.39 1013.88 1013.45 1013.19 1013.12 1013.22 1013.46 1013.75 1014.02 1014.23 1014.36 1014.41 1014.45 1014.51 1014.67 1014.97 1015.40 1015.94 1016.55 1017.17 1017.73 1018.19 1018.53 1018.76 1018.91 1019.03 1019.15 1019.31 1019.51 1019.75 1020.02 1020.26 1020.47 1020.61 1020.68 1020.69 1020.66 1020.62 1020.58 1020.55
1013.54 1014.07 1014.70 1015.31 1015.81 1016.07 1016.04 1015.73 1015.19 1014.51 1013.84 1013.28 1012.93 1012.81 1012.92 1013.20 1013.56 1013.91 1014.20 1014.39 1014.49 1014.55 1014.62 1014.79 1015.08 1015.52 1016.08 1016.71 1017.35 1017.92 1018.39 1018.72 1018.93 1019.05 1019.12 1019.19 1019.30 1019.47 1019.70 1019.97 1020.23 1020.47 1020.64 1020.75 1020.79 1020.79 1020.77 1020.75 1020.75
1013.49 1014.22 1015.03 1015.79 1016.36 1016.64 1016.55 1016.12 1015.41 1014.56 1013.72 1013.02 1012.57 1012.41 1012.51 1012.83 1013.27 1013.71 1014.09 1014.36 1014.52 1014.62 1014.72 1014.88 1015.17 1015.60 1016.16 1016.79 1017.43 1018.02 1018.50 1018.83 1019.04 1019.14 1019.18 1019.22 1019.31 1019.45 1019.66 1019.92 1020.18 1020.42 1020.62 1020.75 1020.82 1020.85 1020.85 1020.86 1020.88
1013.56 1014.48 1015.46 1016.33 1016.96 1017.21 1017.04 1016.47 1015.60 1014.57 1013.56 1012.72 1012.17 1011.95 1012.06 1012.42 1012.92 1013.46 1013.93 1014.28 1014.51 1014.65 1014.77 1014.93 1015.21 1015.61 1016.14 1016.76 1017.39 1017.98 1018.47 1018.83 1019.04 1019.16 1019.21 1019.24 1019.31 1019.44 1019.63 1019.86 1020.11 1020.35 1020.54 1020.68 1020.77 1020.82 1020.85 1020.88 1020.93
1013.77 1014.86 1015.96 1016.91 1017.54 1017.75 1017.49 1016.78 1015.75 1014.56 1013.39 1012.43 1011.78 1011.52 1011.62 1012.01 1012.57 1013.18 1013.74 1014.16 1014.45 1014.63 1014.76 1014.91 1015.16 1015.53 1016.02 1016.60 1017.22 1017.81 1018.31 1018.69 1018.95 1019.09 1019.17 1019.23 1019.30 1019.42 1019.58 1019.79 1020.02 1020.23 1020.41 1020.55 1020.64 1020.70 1020.75 1020.81 1020.88
1014.10 1015.28 1016.45 1017.43 1018.05 1018.19 1017.83 1017.01 1015.85 1014.52 1013.24 1012.18 1011.47 1011.16 1011.25 1011.65 1012.25 1012.91 1013.52 1014.00 1014.33 1014.53 1014.67 1014.80 1015.01 1015.33 1015.78 1016.32 1016.92 1017.50 1018.03 1018.45 1018.75 1018.95 1019.07 1019.16 1019.24 1019.36 1019.51 1019.69 1019.88 1020.06 1020.22 1020.34 1020.42 1020.49 1020.55 1020.62 1020.70
1014.43 1015.66 1016.84 1017.79 1018.35 1018.43 1017.98 1017.08 1015.84 1014.44 1013.10 1011.99 1011.23 1010.90 1010.97 1011.36 1011.96 1012.64 1013.26 1013.77 1014.11 1014.33 1014.46 1014.58 1014.76 1015.04 1015.45 1015.96 1016.53 1017.12 1017.66 1018.12 1018.47 1018.72 1018.90 1019.02 1019.13 1019.24 1019.38 1019.53 1019.68 1019.83 1019.95 1020.05 1020.13 1020.19 1020.25 1020.33 1020.42
1014.66 1015.86 1016.99 1017.87 1018.36 1018.37 1017.87 1016.93 1015.67 1014.27 1012.93 1011.81 1011.05 1010.70 1010.74 1011.11 1011.68 1012.32 1012.93 1013.42 1013.77 1013.98 1014.11 1014.23 1014.40 1014.66 1015.05 1015.54 1016.10 1016.69 1017.25 1017.74 1018.14 1018.44 1018.66 1018.82 1018.94 1019.06 1019.18 1019.30 1019.42 1019.53 1019.62 1019.70 1019.76 1019.81 1019.87 1019.95 1020.04
1014.68 1015.79 1016.82 1017.59 1018.00 1017.95 1017.43 1016.51 1015.30 1013.96 1012.69 1011.63 1010.89 1010.54 1010.54 1010.85 1011.35 1011.93 1012.48 1012.93 1013.26 1013.47 1013.62 1013.75 1013.93 1014.21 1014.60 1015.10 1015.67 1016.26 1016.84 1017.35 1017.78 1018.12 1018.37 1018.55 1018.69 1018.80 1018.90 1019.00 1019.09 1019.17 1019.24 1019.30 1019.35 1019.40 1019.46 1019.53 1019.62
1014.47 1015.44 1016.31 1016.96 1017.27 1017.18 1016.68 1015.82 1014.72 1013.51 1012.35 1011.39 1010.71 1010.35 1010.31 1010.54 1010.94 1011.42 1011.88 1012.28 1012.58 1012.80 1012.98 1013.15 1013.39 1013.71 1014.14 1014.66 1015.25 1015.86 1016.45 1016.97 1017.41 1017.76 1018.02 1018.22 1018.36 1018.47 1018.56 1018.64 1018.72 1018.78 1018.84 1018.88 1018.93 1018.97 1019.03 1019.10 1019.19
Thickness
5807 5805 5802 5791 5771 5753 5751 5760 5767 5767 5769 5775 5779 5775 5767 5761 5757 5757 5779 5789 5789 5785 5782 5779 5776 5774 5772 5770 5768 5767 5766 5764 5763 5762 5761 5760 5758 5757 5756 5755 5755 5754 5753 5752 5751 5750 5749 5749 5748
5805 5802 5792 5777 5755 5741 5749 5763 5765 5771 5778 5780 5779 5776 5769 5766 5773 5775 5780 5785 5787 5783 5781 5778 5775 5773 5771 5769 5767 5765 5764 5762 5761 5759 5758 5757 5755 5754 5753 5752 5751 5751 5750 5749 5748 5747 5746 5746 5745
5803 5798 5778 5762 5750 5744 5754 5767 5770 5778 5784 5781 5775 5776 5770 5768 5775 5778 5782 5785 5783 5781 5778 5776 5773 5771 5769 5767 5765 5764 5762 5760 5758 5757 5755 5754 5752 5751 5750 5749 5748 5747 5746 5745 5745 5744 5743 5742 5742
5796 5783 5770 5753 5749 5758 5766 5773 5777 5776 5780 5781 5777 5769 5773 5780 5781 5782 5784 5783 5779 5777 5776 5773 5771 5769 5767 5765 5763 5762 5760 5758 5756 5754 5753 5751 5750 5748 5747 5746 5745 5744 5743 5742 5741 5741 5740 5739 5739
5788 5769 5752 5741 5748 5762 5774 5781 5781 5775 5774 5775 5773 5765 5766 5778 5784 5783 5781 5779 5776 5773 5772 5770 5768 5767 5765 5762 5760 5759 5758 5756 5754 5752 5750 5749 5748 5746 5744 5743 5742 5741 5739 5738 5738 5737 5737 5736 5736
5769 5757 5737 5734 5747 5764 5773 5780 5778 5772 5771 5772 5769 5762 5762 5774 5777 5777 5776 5774 5773 5771 5769 5766 5765 5764 5762 5760 5758 5757 5755 5754 5752 5749 5748 5746 5745 5743 5742 5740 5739 5737 5736 5735 5734 5733 5733 5733 5732
5760 5746 5738 5741 5746 5757 5769 5775 5772 5767 5765 5768 5770 5758 5758 5766 5773 5776 5772 5769 5768 5767 5765 5763 5761 5760 5759 5757 5756 5754 5753 5751 5749 5747 5745 5743 5742 5740 5739 5737 5736 5734 5733 5731 5730 5730 5730 5729 5729
5767 5747 5740 5738 5744 5754 5768 5769 5770 5766 5763 5771 5770 5757 5755 5763 5768 5770 5768 5765 5763 5762 5761 5760 5758 5757 5755 5754 5752 5751 5750 5748 5746 5744 5742 5740 5739 5737 5735 5734 5733 5731 5730 5728 5727 5727 5726 5726 5726
5769 5739 5730 5740 5747 5757 5766 5762 5765 5769 5763 5763 5764 5763 5765 5766 5764 5760 5758 5757 5757 5757 5757 5756 5755 5753 5752 5751 5749 5747 5746 5744 5742 5741 5739 5737 5736 5734 5732 5731 5730 5729 5727 5726 5725 5724 5724 5723 5723
5757 5734 5743 5759 5764 5764 5765 5762 5760 5757 5753 5751 5754 5758 5762 5760 5756 5753 5751 5750 5752 5753 5754 5754 5752 5750 5749 5747 5746 5744 5743 5741 5739 5737 5736 5734 5733 5731 5730 5728 5727 5726 5725 5724 5723 5722 5721 5721 5720
5758 5749 5761 5768 5772 5769 5762 5759 5759 5751 5743 5748 5749 5749 5751 5751 5749 5748 5748 5749 5749 5750 5751 5751 5749 5747 5746 5744 5742 5740 5739 5737 5735 5734 5732 5731 5729 5728 5726 5724 5723 5723 5722 5721 5720 5719 5718 5718 5717
5761 5764 5769 5771 5774 5769 5761 5757 5751 5748 5747 5754 5755 5751 5747 5745 5743 5743 5744 5745 5746 5746 5746 5747 5746 5744 5743 5741 5739 5737 5735 5733 5732 5730 5729 5728 5726 5724 5722 5721 5720 5719 5718 5717 5716 5716 5715 5714 5714
5764 5766 5772 5773 5771 5767 5760 5753 5748 5746 5749 5751 5748 5744 5740 5739 5738 5739 5741 5743 5743 5743 5744 5744 5743 5741 5739 5738 5736 5734 5732 5731 5729 5727 5726 5725 5723 5721 5719 5717 5716 5715 5715 5714 5713 5712 5712 5711 5711
5771 5770 5769 5769 5766 5764 5754 5748 5744 5744 5746 5744 5740 5735 5735 5733 5734 5734 5736 5736 5738 5740 5741 5742 5741 5739 5737 5736 5734 5732 5730 5728 5727 5725 5723 5721 5720 5717 5716 5714 5713 5712 5711 5711 5710 5709 5709 5708 5708
5774 5764 5762 5763 5761 5758 5750 5738 5739 5743 5742 5736 5734 5733 5731 5730 5731 5730 5733 5735 5736 5738 5740 5740 5738 5737 5736 5734 5732 5730 5728 5726 5724 5722 5720 5718 5716 5714 5712 5711 5709 5708 5708 5707 5706 5705 5705 5705 5704
5767 5753 5745 5756 5758 5755 5743 5729 5740 5741 5737 5730 5729 5729 5728 5727 5728 5730 5732 5734 5736 5736 5736 5737 5736 5734 5734 5732 5730 5728 5726 5723 5721 5719 5717 5715 5713 5711 5709 5707 5705 5705 5704 5703 5702 5701 5700 5699 5699
5746 5737 5739 5749 5757 5753 5740 5730 5736 5737 5732 5727 5725 5725 5724 5723 5726 5729 5730 5732 5734 5735 5734 5733 5733 5732 5732 5730 5728 5725 5723 5720 5718 5716 5714 5712 5710 5708 5706 5704 5702 5701 5700 5699 5699 5696 5696 5695 5695
5738 5737 5739 5741 5752 5748 5736 5731 5733 5733 5730 5725 5724 5723 5721 5722 5724 5727 5729 5731 5732 5732 5732 5730 5730 5729 5729 5727 5724 5722 5719 5717 5715 5713 5711 5709 5707 5705 5703 5701 5699 5698 5696 5695 5694 5692 5691 5690 5690
5753 5743 5737 5745 5753 5744 5735 5730 5729 5730 5727 5724 5722 5720 5719 5721 5725 5727 5729 5730 5730 5730 5730 5729 5728 5728 5727 5724 5721 5718 5715 5713 5712 5711 5709 5707 5704 5703 5701 5698 5696 5694 5693 5691 5690 5689 5688 5686 5686
5751 5741 5740 5747 5751 5743 5733 5729 5731 5730 5728 5726 5724 5721 5721 5721 5723 5726 5728 5730 5729 5729 5729 5728 5728 5727 5726 5724 5722 5718 5715 5712 5710 5709 5707 5705 5703 5701 5699 5697 5694 5692 5690 5688 5687 5686 5684 5682 5681
5753 5744 5744 5741 5743 5739 5731 5725 5727 5730 5730 5728 5727 5726 5725 5725 5725 5726 5728 5729 5729 5729 5729 5730 5727 5727 5725 5723 5720 5716 5713 5710 5708 5706 5704 5703 5701 5700 5698 5695 5692 5690 5688 5686 5684 5683 5681 5678 5677
5747 5759 5755 5744 5730 5717 5721 5704 5722 5726 5725 5727 5727 5727 5727 5729 5729 5729 5729 5729 5730 5731 5731 5730 5727 5726 5724 5722 5719 5716 5711 5708 5707 5705 5704 5702 5700 5698 5696 5694 5691 5688 5686 5684 5682 5680 5678 5676 5673
5756 5756 5748 5737 5725 5714 5713 5704 5713 5725 5723 5728 5731 5732 5733 5734 5734 5732 5733 5734 5734 5733 5731 5729 5727 5725 5723 5721 5719 5716 5711 5709 5707 5705 5702 5700 5699 5697 5695 5693 5690 5687 5684 5682 5680 5677 5675 5672 5670
5759 5747 5734 5720 5710 5701 5710 5703 5709 5720 5730 5736 5738 5739 5740 5739 5738 5736 5737 5736 5734 5734 5732 5729 5726 5724 5722 5720 5718 5715 5712 5708 5705 5703 5700 5698 5697 5695 5694 5691 5688 5685 5682 5680 5677 5674 5672 5669 5666
5752 5728 5704 5701 5690 5695 5710 5704 5711 5738 5745 5747 5746 5744 5744 5744 5741 5739 5737 5735 5734 5733 5731 5729 5726 5723 5722 5720 5717 5715 5712 5709 5706 5703 5700 5697 5695 5693 5692 5690 5687 5684 5681 5678 5675 5672 5669 5666 5663
5745 5731 5705 5694 5688 5695 5707 5705 5727 5751 5755 5756 5754 5751 5748 5745 5744 5742 5741 5739 5737 5735 5732 5730 5727 5724 5722 5720 5717 5714 5711 5709 5706 5703 5700 5697 5695 5693 5691 5688 5685 5682 5679 5676 5673 5669 5667 5663 5660
5739 5728 5727 5703 5697 5690 5700 5714 5735 5753 5752 5752 5751 5750 5749 5749 5747 5746 5743 5741 5739 5736 5734 5731 5728 5725 5723 5720 5717 5713 5710 5708 5705 5702 5699 5697 5694 5692 5689 5687 5683 5680 5677 5674 5670 5667 5664 5660 5657
5749 5730 5712 5699 5688 5685 5699 5708 5719 5742 5747 5748 5748 5748 5749 5750 5749 5747 5746 5744 5742 5739 5737 5733 5730 5727 5724 5720 5716 5714 5710 5707 5704 5701 5698 5695 5693 5690 5687 5684 5681 5678 5675 5671 5667 5664 5661 5657 5654
5736 5726 5711 5696 5695 5685 5685 5706 5741 5746 5751 5750 5751 5752 5751 5750 5750 5749 5748 5746 5744 5740 5737 5733 5730 5727 5723 5720 5716 5713 5709 5706 5702 5699 5697 5694 5691 5688 5685 5682 5678 5675 5672 5669 5665 5661 5658 5654 5651
5745 5732 5714 5703 5696 5688 5686 5708 5755 5754 5756 5755 5755 5756 5756 5754 5752 5750 5748 5745 5742 5739 5737 5734 5731 5728 5725 5721 5716 5712 5708 5704 5700 5697 5695 5691 5688 5686 5683 5679 5675 5672 5669 5666 5662 5658 5655 5651 5648